sat.trackr.live / text

‹ back to catalog

EMISAT

NORAD 44078 · 2019-018A

PAYLOAD ACTIVE UNKNOWN

§ Identity

Operator
Country
IND
Launch date
2019-04-01
Launch site
SRILR
Launch vehicle
Mass (kg)
RCS (m²)

External: N2YO · Heavens-Above · Gunter

§ Orbital elements

Epoch: 2026-05-25T04:53:04.003584Z

Period
99.75 min
Inclination
98.4656°
Eccentricity
0.0017316
Mean motion
14.43674300 rev/d
Perigee alt
734.0 km
Apogee alt
758.7 km
Semi-major
7,124.5 km
B*
2.6989e-5
RAAN
204.1281°
Arg perigee
288.3801°
Mean anomaly
71.5506°
Rev number
37,674

§ Raw data

EMISAT1 44078U 19018A   26145.20351856  .00000047  00000+0  26989-4 0  99982 44078  98.4656 204.1281 0017316 288.3801  71.5506 14.43674300376742

JSON: /api/v1/satellites/44078 · /tle

For live sub-satellite position, see the globe view (requires WebGL).

§ Visibility from observer

Set your observer location to see the next 7 days of passes ≥ 10°. The values pass through the URL so the page stays shareable.

No JS? Fill the form by hand. The geolocation button needs JavaScript.

§ Radio — SatNOGS DB

ModeDescriptionDownlinkUplink
FM S-band telemetry 2.255 GHz

1 transmitter · refreshed weekly from db.satnogs.org